Accueil
METAR-TAF:

METAR-TAF

Aéroports :

Bradshaw, Hawaii, États-Unis

Bradshaw Army Air Field

latitude: 19-47N, longitude: 155-33W, altitude: 1887 m

Observation

Le bulletin a été fait il y a 44 minutes, à 21:56 UTC
Vent 7 kt de ouest/sud-ouest avec des rafales jusqu'à 15 kt
Température 24°C
Humidité 41%
Pression 1025 hPa
Visibilité: 16.1 km
Quelques nuages à une hauteur de 6500 ft

METAR: PHSF 232156Z AUTO 25007G15KT 10SM FEW065 24/10 A3026 RMK AO2 SLPNO WND DATA ESTMD T02360095 $

Heure: 12:40 (22:40 UTC)


TAF: absent

Observations et prévisions météorologiques de plus de 4000 aéroports (messages METAR et TAF).

Les stations disponibles sont représentées par des disques jaunes et rouges sur la carte.

Passer la souris dessus pour voir le nom de la station.

Cliquer dessus pour voir les observations et prévisions météorologiques.

Pour changer de carte: cliquez sur les boutons verts avec une croix noire pour zoomer, sur le bouton vert avec un tiret pour effectuer un zoom arrière, ou sur les flèches vertes pour les cartes adjacentes.


METAR-TAF: